Milwaukee, WI

4:03 AM CDT on March 24, 2017 (GMT -0500)
Gen Mitchell International

Weather History for KMKE - September, 2012

Change the Weather History Date:

Wednesday, September 12, 2012

  Actual Average Record
Temperature  
Mean Temperature 75 °F 65 °F  
Max Temperature 86 °F 73 °F 92 °F (1948)
Min Temperature 64 °F 57 °F 40 °F (1975)
Degree Days  
Heating Degree Days 0 3  
Month to date heating degree days 8 23  
Since 1 July heating degree days 8 49  
Cooling Degree Days 10 3  
Month to date cooling degree days 69 44  
Year to date cooling degree days 1040 609  
Growing Degree Days 25 (Base 50)    
Moisture  
Dew Point 57 °F    
Average Humidity 55    
Maximum Humidity 73    
Minimum Humidity 37    
Precipitation  
Precipitation 0.00 in 0.11 in 1.52 in (1978)
Month to date precipitation 1.38 1.24  
Year to date precipitation 21.23 25.42  
Snow  
Snow 0.00 in 0.00 in 0.00 in ()
Month to date snowfall 0.0 0.0  
Since 1 July snowfall 0.0 0.0  
Since 1 September snowfall 0.0 0.0  
Snow Depth 0.00 in    
Sea Level Pressure  
Sea Level Pressure 30.08 in    
Wind  
Wind Speed 12 mph (SSW)    
Max Wind Speed 17 mph    
Max Gust Speed 23 mph    
Visibility 10 miles    
Events      
T = Trace of Precipitation, MM = Missing Value Source: NWS Daily Summary

Daily Weather History Graph

Daily Weather History Graph

Search for Another Location

Airport or City:

Trip Planner

Search our weather history database for the weather conditions in past years. The results will help you decide how hot, cold, wet, or windy it might be!

Date:

Astronomy

Sep. 12, 2012 Rise Set
Actual Time 6:28 AM CDT 7:06 PM CDT
Civil Twilight 5:59 AM CDT 7:34 PM CDT
Nautical Twilight 5:26 AM CDT 8:08 PM CDT
Astronomical Twilight 4:51 AM CDT 8:43 PM CDT
Moon 2:40 AM CDT (9/12) 4:57 PM CDT (9/12)
Length of Visible Light 13h 34m
Length of Day
12h 37m
Waning Crescent, 13% of the Moon is Illuminated
Sep 12
Waning Crescent
Sep 15
New
Sep 22
First Quarter
Sep 29
Full
Oct 8
Last Quarter

Hourly Weather History & Observations

Time (CDT) Temp. Heat Index Dew Point Humidity Pressure Visibility Wind Dir Wind Speed Gust Speed Precip Events Conditions
12:52 AM 68.0 °F - 55.0 °F 63% 30.06 in 10.0 mi SW 10.4 mph - N/A   Partly Cloudy
1:52 AM 68.0 °F - 55.0 °F 63% 30.06 in 10.0 mi SW 11.5 mph - N/A   Clear
2:52 AM 68.0 °F - 55.0 °F 63% 30.06 in 10.0 mi SW 13.8 mph - N/A   Clear
3:52 AM 66.9 °F - 55.0 °F 66% 30.05 in 10.0 mi SW 15.0 mph - N/A   Clear
4:52 AM 66.9 °F - 55.0 °F 66% 30.06 in 10.0 mi SW 16.1 mph - N/A   Partly Cloudy
5:52 AM 66.0 °F - 55.0 °F 68% 30.07 in 10.0 mi SW 13.8 mph - N/A   Mostly Cloudy
6:52 AM 64.9 °F - 55.0 °F 70% 30.09 in 10.0 mi SW 10.4 mph - N/A   Mostly Cloudy
7:52 AM 66.9 °F - 55.9 °F 68% 30.10 in 10.0 mi SW 13.8 mph - N/A   Mostly Cloudy
8:52 AM 71.1 °F - 57.0 °F 61% 30.11 in 10.0 mi SSW 11.5 mph - N/A   Mostly Cloudy
9:52 AM 73.9 °F - 57.9 °F 57% 30.10 in 10.0 mi SSW 12.7 mph - N/A   Mostly Cloudy
10:52 AM 77.0 °F - 59.0 °F 54% 30.10 in 10.0 mi SW 11.5 mph - N/A   Mostly Cloudy
11:52 AM 80.1 °F 81.1 °F 61.0 °F 52% 30.09 in 10.0 mi SSW 9.2 mph - N/A   Mostly Cloudy
12:52 PM 82.9 °F 83.3 °F 61.0 °F 47% 30.08 in 10.0 mi South 10.4 mph - N/A   Mostly Cloudy
1:52 PM 84.9 °F 84.4 °F 59.0 °F 41% 30.06 in 10.0 mi SSW 13.8 mph 20.7 mph N/A   Mostly Cloudy
2:52 PM 86.0 °F 85.4 °F 59.0 °F 40% 30.05 in 10.0 mi South 12.7 mph - N/A   Mostly Cloudy
3:52 PM 86.0 °F 84.9 °F 57.0 °F 37% 30.05 in 10.0 mi SW 13.8 mph - N/A   Mostly Cloudy
4:52 PM 82.0 °F 83.1 °F 63.0 °F 52% 30.04 in 10.0 mi SE 16.1 mph - N/A   Mostly Cloudy
4:57 PM 80.6 °F 81.8 °F 62.6 °F 54% 30.05 in 10.0 mi SE 15.0 mph - N/A   Mostly Cloudy
5:52 PM 79.0 °F - 63.0 °F 58% 30.04 in 10.0 mi SE 10.4 mph - N/A   Mostly Cloudy
6:52 PM 75.9 °F - 61.0 °F 60% 30.06 in 10.0 mi South 8.1 mph - N/A   Mostly Cloudy
7:52 PM 75.0 °F - 62.1 °F 64% 30.06 in 10.0 mi South 8.1 mph - N/A   Mostly Cloudy
8:52 PM 75.0 °F - 59.0 °F 57% 30.08 in 10.0 mi SSW 6.9 mph - N/A   Mostly Cloudy
9:52 PM 71.1 °F - 48.9 °F 45% 30.12 in 10.0 mi North 11.5 mph - N/A   Mostly Cloudy
10:52 PM 68.0 °F - 41.0 °F 37% 30.13 in 10.0 mi NNE 10.4 mph - N/A   Scattered Clouds
11:52 PM 66.0 °F - 39.9 °F 38% 30.15 in 10.0 mi North 11.5 mph 18.4 mph N/A   Mostly Cloudy